Regional Weather Roundup
Issued by NWS

Home | Current Version | Previous Version | Graphics & Text | Print | Product List | Glossary On
Versions: 1 2 3 4 5 6 7 8 9 10 11 12 13 14 15 16 17 18 19 20 21 22 23 24 25 26 27 28 29 30 31 32 33 34 35 36 37 38 39 40 41 42 43 44 45 46 47 48 49 50
000
ASUS43 KMPX 291101
RWRMN
WEATHER ROUNDUP FOR MINNESOTA
NATIONAL WEATHER SERVICE TWIN CITIES/CHANHASSEN MN
500 AM CST THU JAN 29 2015


NOTE: "FAIR" INDICATES FEW OR NO CLOUDS BELOW 12,000 FEET WITH NO
SIGNIFICANT WEATHER AND/OR OBSTRUCTIONS TO VISIBILITY. N/A MEANS
CURRENT SKY AND/OR WEATHER CONDITIONS ARE NOT AVAILABLE.

MNZ060>063-068>070-291200-
   Twin Cities Metro

CITY           SKY/WX    TMP DP  RH WIND       PRES   REMARKS
TWIN CITIES    CLOUDY    34  29  82 NW16      29.96R WCI  24
ST PAUL        CLOUDY    34  30  85 NW16      29.97R WCI  24
CRYSTAL        CLOUDY    35  30  82 NW22G29   29.96R WCI  23
BLAINE         CLOUDY    36  34  93 NW13      29.96R
LAKEVILLE      CLOUDY    32  30  93 NW15G24   29.96R WCI  22
EDEN PRAIRIE   CLOUDY    34  29  82 NW15G24   29.96R WCI  24
SOUTH ST PAUL  CLOUDY    34  32  91 NW14      29.95R WCI  25
LAKE ELMO      CLOUDY    34  32  93 NW14G21   29.95R WCI  24
$$
MNZ001>005-007-008-013>017-022>024-027-028-291200-
   Northwest Minnesota

CITY           SKY/WX    TMP DP  RH WIND       PRES   REMARKS
BEMIDJI        CLOUDY    19  18  93 NW18      30.10R WCI   4
HALLOCK        CLOUDY    12   7  79 NW24G30   30.27R WCI  -8
ROSEAU         FLURRIES  16  10  79 NW18G25   30.18R WCI  -1
WARROAD        FLURRIES  12   9  85 NW22      30.17R WCI  -7
THIEF RVR FALL CLOUDY    14   9  79 NW20      30.21R WCI  -3
CROOKSTON      CLOUDY    16  12  86 N30G38    30.26R WCI  -4
FOSSTON        CLOUDY    14  10  85 NW15G23   30.19R WCI  -1
DETROIT LAKES  CLOUDY    19  19 100 NW17G26   30.18R WCI   4
MOORHEAD       CLOUDY    23  21  93 N22       30.25R WCI   8
PARK RAPIDS    CLOUDY    22  19  89 NW20G26   30.09R WCI   7
MAHNOMEN       CLOUDY    17  15  89 NW21      30.18R WCI   1
$$
MNZ006-009>011-018-025>026-291200-
   North Central Minnesota

CITY           SKY/WX    TMP DP  RH WIND       PRES   REMARKS
BAUDETTE       CLOUDY    16  11  80 NW24      30.11R WCI  -2
FLAG ISLAND    FLURRIES  12   9  85 NW24      30.14R WCI  -8
INTL FALLS     CLOUDY    21  18  88 NW20G26   30.03R WCI   6
WASKISH        CLOUDY    19  18  93 NW10      30.10R WCI   8
BIG FORK       CLOUDY    25  21  86 NW9       30.03R WCI  15
LONGVILLE      CLOUDY    25  21  86 NW13G25   30.04R WCI  13
GRAND RAPIDS   CLOUDY    27  21  80 NW20G28   29.98R WCI  13
CRANE LAKE     CLOUDY    21  19  93 NW14G25   30.00R WCI   8
ORR            CLOUDY    25  19  80 NW14G23   29.96R WCI  13
COOK           CLOUDY    25  21  86 NW14G25   29.96R WCI  13
WALKER         CLOUDY    22  21  93 NW10G18   30.06R WCI  12
$$
MNZ012-019>021-037-291200-
   Northeast Minnesota

CITY           SKY/WX    TMP DP  RH WIND       PRES   REMARKS
DULUTH         CLOUDY    29  23  78 NW18G30   29.89R WCI  16
ELY            CLOUDY    25  21  86 NW13G22   29.90R WCI  13
HIBBING        CLOUDY    28  22  78 N22       29.95R WCI  14
EVELETH        CLOUDY    28  25  86 NW10G18   29.95R WCI  19
DULUTH HARBOR  CLOUDY    32  27  80 NW20G25   29.95R WCI  20
TWO HARBORS    CLOUDY    32  25  74 NW9G22    29.87R WCI  24
SILVER BAY     CLOUDY    30  25  80 NW5G18    29.86R WCI  25
GRAND MARAIS     N/A     31  23  72 VRB5      29.84R WCI  26
G MARAIS ARPRT CLOUDY    25  19  80 NW18G28   29.77R WCI  11
$$
MNZ029>031-032-039>041-046>048-054>057-064-291200-
   West Central Minnesota

CITY           SKY/WX    TMP DP  RH WIND       PRES   REMARKS
FERGUS FALLS   CLOUDY    21  19  93 N25G39    30.21R WCI   4
WHEATON        CLOUDY    25  21  86 NW17G28   30.23R WCI  11
MORRIS         CLOUDY    27  23  86 NW30G37   30.15R WCI  10
ALEXANDRIA     CLOUDY    24  20  84 NW25G35   30.11R WCI   8
ELBOW LAKE     CLOUDY    24  22  91 NW16G30   30.17R WCI  11
WADENA         CLOUDY    21  19  93 NW15      30.11R WCI   8
GLENWOOD       CLOUDY    25  21  86 NW25G31   30.11R WCI   9
APPLETON       CLOUDY    30  25  80 NW23G31   30.17R WCI  17
BENSON         CLOUDY    28  23  80 N23G36    30.14R WCI  14
ORTONVILLE     CLOUDY    28  23  80 N21G33    30.18R WCI  15
MADISON        CLOUDY    34  28  80 NW23G29   30.18R WCI  22
WILLMAR        CLOUDY    30  25  80 NW24G37   30.10R WCI  16
$$
MNZ033>034-036-042>043-049>051-058-059-291200-
   Central Minnesota

CITY           SKY/WX    TMP DP  RH WIND       PRES   REMARKS
ST CLOUD       CLOUDY    30  26  85 NW22G31   30.01R WCI  17
SAUK CENTRE    CLOUDY    26  22  88 NW18G32   30.08R WCI  12
PAYNESVILLE    CLOUDY    25  23  91 W17G29    30.08R WCI  12
AITKIN         CLOUDY    30  27  86 NW8G17    29.99R WCI  23
PINE RIVER     CLOUDY    25  21  86 NW14G23   30.08R WCI  13
BRAINERD       CLOUDY    28  24  85 NW21G31   30.03R WCI  15
STAPLES        CLOUDY    25  21  86 NW18      30.08R WCI  11
LONG PRAIRIE   CLOUDY    25  23  93 NW22G29   30.08R WCI  10
LITTLE FALLS   CLOUDY    28  25  86 NW16G23   30.05R WCI  17
LITCHFIELD     CLOUDY    28  27  93 NW20G30   30.05R WCI  15
BUFFALO        CLOUDY    31  28  87 NW16G22   30.01R WCI  20
MAPLE LAKE     CLOUDY    31  29  92 NW16G26   30.02R WCI  20
$$
MNZ037-044-045-052-053-291200-
   East Central Minnesota

CITY           SKY/WX    TMP DP  RH WIND       PRES   REMARKS
PRINCETON      CLOUDY    34  28  80 NW14      29.99R WCI  24
MORA           CLOUDY    32  27  80 N20       29.98R WCI  20
CAMBRIDGE      FLURRIES  36  27  69 NW13G23   29.95R
RUSH CITY      CLOUDY    33  28  81 NW14G24   29.96R WCI  23
MOOSE LAKE     CLOUDY    32  27  80 NW12G25   29.94R WCI  23
HINCKLEY       CLOUDY    32  28  86 NW18G24   29.96R WCI  20
CLOQUET        CLOUDY    28  25  86 NW18G28   29.92R WCI  16
MCGREGOR       CLOUDY    30  28  93 NW20G25   29.98R WCI  18
$$
MNZ071>073-080-081-089-090-097-098-291200-
   Southwest Minnesota

CITY           SKY/WX    TMP DP  RH WIND       PRES   REMARKS
MONTEVIDEO     CLOUDY    28  27  93 N26G38    30.15R WCI  13
GRANITE FALLS  CLOUDY    29  26  86 NW28G35   30.15R WCI  14
CANBY          CLOUDY    29  25  86 NW22G30   30.19R WCI  15
MARSHALL       CLOUDY    28  21  74 N28G39    30.15R WCI  13
REDWOOD FALLS  CLOUDY    31  26  82 NW21G29   30.10R WCI  18
OLIVIA         CLOUDY    28  27  93 NW25G33   30.09R WCI  14
PIPESTONE      CLOUDY    30  27  86 N23G38    30.14R WCI  17
WINDOM         CLOUDY    30  27  86 NW35G41   30.07R WCI  14
WORTHINGTON    CLOUDY    32  25  74 N26G35    30.11R WCI  18
JACKSON        CLOUDY    32  28  86 NW24G38   30.06R WCI  19
TRACY          CLOUDY    30  28  90 NW24G38   30.13R WCI  16
SLAYTON        CLOUDY    29  25  86 NW29G39   30.11R WCI  13
$$
MNZ065>067-074>077-082>085-091>093-291200-
   South Central Minnesota

CITY           SKY/WX    TMP DP  RH WIND       PRES   REMARKS
MANKATO        CLOUDY   N/A N/A N/A NW26      30.00R
NEW ULM        CLOUDY    30  27  86 NW30G39   30.05R WCI  15
ST JAMES       CLOUDY    34  28  80 NW22G39   30.05R WCI  22
FAIRMONT       CLOUDY    32  27  80 NW30G39   30.02R WCI  18
GLENCOE        CLOUDY    32  29  88 NW24G30   30.02R WCI  19
FARIBAULT      CLOUDY    34  32  93 NW10G18   29.97R WCI  26
OWATONNA       CLOUDY    34  30  86 NW17G24   29.96R FOG     WCI  23
WASECA         CLOUDY    32  30  93 NW20G29   29.99R WCI  20
ALBERT LEA     CLOUDY    34  34 100 NW14G23   29.96R FOG     WCI  24
$$
MNZ078>079-086>088-094>096-291200-
   Southeast Minnesota

CITY           SKY/WX    TMP DP  RH WIND       PRES   REMARKS
ROCHESTER      FRZ RAIN  31  29  92 NW22      29.91R FOG     WCI  18
RED WING       CLOUDY    34  30  86 NW9       29.93R FOG     WCI  26
DODGE CENTER   CLOUDY    34  32  93 NW20      29.92R FOG     WCI  22
WINONA         CLOUDY    34  32  93 NW12G17   29.91R WCI  25
AUSTIN         CLOUDY    34  30  86 NW18G25   29.93R WCI  23
PRESTON        CLOUDY    30  29  94 N14G23    29.89R FOG     WCI  20
$$
ABBREVIATIONS USED IN REMARKS
   TC - TEMPERATURES IN CELSIUS
  WCI - WIND CHILL INDEX
   HX - HEAT INDEX
  VSB - VISIBILITY
$$



USA.gov is the U.S. government's official web portal to all federal, state and local government web resources and services.